This is the latest recevied weather packets stored in our database for station/object W1ERB-13. If no packets are shown the sender has not sent any weather packets the latest 10 day(s).
| Time | Temp. | Humidity | Pressure | Rain* | Wind** | Luminosity | Snow |
|---|---|---|---|---|---|---|---|
| 1777860717 | 6.67° C | 74% | 1011 hPa | 0 mm | - | 0 W/m² | - |
| 1777860414 | 6.67° C | 73% | 1010.9 hPa | 0 mm | - | 0 W/m² | - |
| 1777860110 | 6.67° C | 73% | 1010.9 hPa | 0 mm | - | 0 W/m² | - |
| 1777859807 | 6.67° C | 73% | 1011 hPa | 0 mm | - | 0 W/m² | - |
| 1777859503 | 6.67° C | 72% | 1010.8 hPa | 0 mm | - | 0 W/m² | - |
| 1777859199 | 6.67° C | 72% | 1010.9 hPa | 0 mm | - | 0 W/m² | - |
| 1777858896 | 7.22° C | 71% | 1010.8 hPa | 0 mm | - | 0 W/m² | - |
| 1777858594 | 7.22° C | 70% | 1010.8 hPa | 0 mm | - | 0 W/m² | - |
| 1777858291 | 7.22° C | 69% | 1010.9 hPa | 0 mm | - | 0 W/m² | - |
| 1777857988 | 7.78° C | 68% | 1010.7 hPa | 0 mm | - | 0 W/m² | - |
| 1777857686 | 7.78° C | 66% | 1010.5 hPa | 0 mm | - | 0 W/m² | - |
| 1777857382 | 7.78° C | 65% | 1010.6 hPa | 0 mm | - | 0 W/m² | - |
| 1777857079 | 7.78° C | 61% | 1010.7 hPa | 0 mm | - | 0 W/m² | - |
| 1777856775 | 7.78° C | 63% | 1010.3 hPa | 0 mm | - | 0 W/m² | - |
| 1777856471 | 7.78° C | 61% | 1010.3 hPa | 0 mm | - | 0 W/m² | - |
| 1777856168 | 8.33° C | 59% | 1010.3 hPa | 0 mm | - | 0 W/m² | - |
| 1777855865 | 8.33° C | 58% | 1010.1 hPa | 0 mm | - | 0 W/m² | - |
| 1777855563 | 8.33° C | 56% | 1010 hPa | 0 mm | - | 0 W/m² | - |
| 1777855260 | 8.33° C | 56% | 1010 hPa | 0 mm | - | 0 W/m² | - |
| 1777854955 | 8.33° C | 55% | 1010 hPa | 0 mm | - | 0 W/m² | - |
| 1777854653 | 8.33° C | 56% | 1009.9 hPa | 0 mm | - | 0 W/m² | - |
| 1777854349 | 8.89° C | 52% | 1009.6 hPa | 0 mm | - | 0 W/m² | - |
| 1777854047 | 8.89° C | 51% | 1009.6 hPa | 0 mm | - | 0 W/m² | - |
| 1777853744 | 8.89° C | 50% | 1009.7 hPa | 0 mm | - | 0 W/m² | - |
| 1777853440 | 9.44° C | 47% | 1009.7 hPa | 0 mm | - | 0 W/m² | - |
* Rain latest hour (hover to see other rain measurements)
** Current wind speed in m/s (hover to see current wind gust speed)